Weather in Nova Chornorudka

Ukraine / Zhytomyr Region     49°50′54″N   29°01′30″E
temp.,
°C
wind,
m/s
gust,
m/s
humid.,
%
clouds,
%
prec.,
mm/h
press.,
hPa
HPBL,
m
13 june, sun
sun1300:00+14sw46925 0.0 1010104
03:00+13sw4995100 0.0 1008168
06:00+13ssw4994100 0.0 1006206
09:00+16wsw7118899 0.6 1006789
12:00+14nw71083100 0.1 1008728
15:00+13nw5891100 1.9 1009603
18:00+15nw5778100 0.6 10101040
21:00+12wnw4989100 0.6 1011261
14 june, mon
mon1400:00+11wnw41096100 0.0 1012264
03:00+10nw3898100 0.0 1012224
06:00+10nw3698100 0.0 1013202
09:00+14n5679100 0.0 1013545
12:00+13nne4793100 1.2 1014465
15:00+12nnw4996100 2.3 1015483
18:00+13nnw51197100 0.5 1014429
21:00+13nnw51296100 0.6 1014323
15 june, tue
tue1500:00+13nnw41197100 0.1 1015263
03:00+12n41097100 0.6 1015300
06:00+12n499880 0.0 1016294
09:00+16n579281 0.0 1016457
12:00+20n667665 0.0 1015955
15:00+21n5774100 0.2 10141266
18:00+21n58785 1.6 1013981
21:00+17nnw411900 2.3 1014239
16 june, wed
wed1600:00+14nnw513930 0.0 1014311
03:00+13nnw412948 0.0 1014245
06:00+12nnw51294100 0.0 1015264
09:00+17n6108426 0.0 1015601
12:00+21n68655 0.0 10151388
15:00+23nne685914 0.0 10142059
18:00+21n69763 0.4 10151029
21:00+17n511860 0.6 1017354
17 june, thu
thu1700:00+15n411960 0.0 1018251
03:00+14n5119710 0.0 1018289
06:00+13n511950 0.0 1019273
09:00+18nne69803 0.0 1019496
12:00+22nne79694 0.0 10201090
15:00+23ne78645 0.0 10191554
18:00+22ne69750 0.3 10201017
21:00+18ne411870 0.8 1020299